Location: Elliott Corner
(37.4627°N, 119.7746°W)
Time: 23:42:30
(UTC+00:00)

ARGOS - Pass Details

Date: 10 September 2024
Orbit: 818 x 834 km, 98.4° (Epoch: 13 October)

Event Time Altitude Azimuth Distance (km) Brightness Sun altitude
Rises 12:13:11 0° 20° (NNE) 3,355 6.9 -17.1°
Reaches altitude 10° 12:15:39 10° 27° (NNE) 2,419 6.2 -16.6°
Maximum altitude 12:20:45 44° 99° (E) 1,127 4.3 -15.7°
Drops below altitude 10° 12:25:48 10° 170° (S) 2,408 5.5 -14.7°
Sets 12:28:15 0° 177° (S) 3,338 6.2 -14.3°
